contact:dominique.lefevre@mio.osupytheas.fr, maurice.libes@osupytheas.fr, didier.mallarino@osupytheas.fr
Project:EMSO http://www.emso-fr.org/EMSO-France
Depth: 2436.0 m
Title:EMSO Ligure Ouest : Data MII capteur MICROCAT
DateTime_Computer,Latitude,Longitude,Temperature,Conductivity,Pressure,DateTime_Instrument
DateTime_Computer,Latitude,Longitude,degC,S m-1,dbar,DateTime_Instrument
2022-03-18T00:01:10Z,42.805,6.029,13.3019,4.60062,2470.18,2022-3-18T02:02:46Z
2022-03-18T00:04:13Z,42.805,6.029,13.3018,4.60062,2470.18,2022-3-18T02:05:49Z
2022-03-18T00:07:16Z,42.805,6.029,13.3019,4.60072,2470.18,2022-3-18T02:08:52Z
2022-03-18T00:10:19Z,42.805,6.029,13.3018,4.60069,2470.194,2022-3-18T02:11:55Z
2022-03-18T00:13:22Z,42.805,6.029,13.3009,4.60067,2470.203,2022-3-18T02:14:58Z
2022-03-18T00:16:25Z,42.805,6.029,13.3014,4.60066,2470.217,2022-3-18T02:18:01Z
2022-03-18T00:19:28Z,42.805,6.029,13.3009,4.60069,2470.194,2022-3-18T02:21:04Z
2022-03-18T00:22:31Z,42.805,6.029,13.3019,4.60077,2470.194,2022-3-18T02:24:08Z
2022-03-18T00:25:35Z,42.805,6.029,13.3014,4.60076,2470.18,2022-3-18T02:27:11Z
2022-03-18T00:28:38Z,42.805,6.029,13.3009,4.60084,2470.194,2022-3-18T02:30:14Z
2022-03-18T00:31:41Z,42.805,6.029,13.3019,4.60062,2470.217,2022-3-18T02:33:17Z
2022-03-18T00:34:44Z,42.805,6.029,13.3018,4.60069,2470.217,2022-3-18T02:36:20Z
2022-03-18T00:37:47Z,42.805,6.029,13.3016,4.60067,2470.203,2022-3-18T02:39:23Z
2022-03-18T00:40:50Z,42.805,6.029,13.3014,4.60070,2470.194,2022-3-18T02:42:26Z
2022-03-18T00:43:53Z,42.805,6.029,13.3019,4.60073,2470.194,2022-3-18T02:45:29Z
2022-03-18T00:46:56Z,42.805,6.029,13.3018,4.60067,2470.227,2022-3-18T02:48:33Z
2022-03-18T00:50:00Z,42.805,6.029,13.3020,4.60060,2470.194,2022-3-18T02:51:36Z
2022-03-18T00:53:03Z,42.805,6.029,13.3019,4.60064,2470.217,2022-3-18T02:54:39Z
2022-03-18T00:56:06Z,42.805,6.029,13.3025,4.60064,2470.194,2022-3-18T02:57:42Z
2022-03-18T00:59:09Z,42.805,6.029,13.3013,4.60071,2470.171,2022-3-18T03:00:45Z
2022-03-18T01:02:12Z,42.805,6.029,13.3018,4.60074,2470.194,2022-3-18T03:03:48Z
2022-03-18T01:05:15Z,42.805,6.029,13.3011,4.60067,2470.156,2022-3-18T03:06:51Z
2022-03-18T01:08:18Z,42.805,6.029,13.3013,4.60067,2470.18,2022-3-18T03:09:54Z
2022-03-18T01:11:21Z,42.805,6.029,13.3010,4.60062,2470.217,2022-3-18T03:12:57Z
2022-03-18T01:14:25Z,42.805,6.029,13.3015,4.60062,2470.203,2022-3-18T03:16:01Z
2022-03-18T01:17:28Z,42.805,6.029,13.3016,4.60077,2470.203,2022-3-18T03:19:04Z
2022-03-18T01:20:31Z,42.805,6.029,13.3016,4.60067,2470.194,2022-3-18T03:22:07Z
2022-03-18T01:23:34Z,42.805,6.029,13.3016,4.60070,2470.217,2022-3-18T03:25:10Z
2022-03-18T01:26:37Z,42.805,6.029,13.3017,4.60065,2470.203,2022-3-18T03:28:13Z
2022-03-18T01:29:40Z,42.805,6.029,13.3021,4.60061,2470.18,2022-3-18T03:31:16Z
2022-03-18T01:32:43Z,42.805,6.029,13.3015,4.60072,2470.217,2022-3-18T03:34:19Z
2022-03-18T01:35:46Z,42.805,6.029,13.3020,4.60063,2470.227,2022-3-18T03:37:22Z
2022-03-18T01:38:50Z,42.805,6.029,13.3014,4.60078,2470.227,2022-3-18T03:40:26Z
2022-03-18T01:41:53Z,42.805,6.029,13.3009,4.60064,2470.217,2022-3-18T03:43:29Z
2022-03-18T01:44:56Z,42.805,6.029,13.3014,4.60074,2470.203,2022-3-18T03:46:32Z
2022-03-18T01:47:59Z,42.805,6.029,13.3024,4.60067,2470.194,2022-3-18T03:49:35Z
2022-03-18T01:51:02Z,42.805,6.029,13.3016,4.60069,2470.194,2022-3-18T03:52:38Z
2022-03-18T01:54:05Z,42.805,6.029,13.3017,4.60069,2470.203,2022-3-18T03:55:41Z
2022-03-18T01:57:08Z,42.805,6.029,13.3018,4.60073,2470.217,2022-3-18T03:58:44Z
2022-03-18T02:00:11Z,42.805,6.029,13.3019,4.60072,2470.217,2022-3-18T04:01:47Z
2022-03-18T02:03:14Z,42.805,6.029,13.3019,4.60061,2470.217,2022-3-18T04:04:51Z
2022-03-18T02:06:18Z,42.805,6.029,13.3016,4.60065,2470.217,2022-3-18T04:07:54Z
2022-03-18T02:09:21Z,42.805,6.029,13.3017,4.60065,2470.203,2022-3-18T04:10:57Z
2022-03-18T02:12:24Z,42.805,6.029,13.3017,4.60070,2470.203,2022-3-18T04:14:00Z
2022-03-18T02:15:27Z,42.805,6.029,13.3015,4.60075,2470.18,2022-3-18T04:17:03Z
2022-03-18T02:18:30Z,42.805,6.029,13.3017,4.60067,2470.203,2022-3-18T04:20:06Z
2022-03-18T02:21:33Z,42.805,6.029,13.3012,4.60059,2470.217,2022-3-18T04:23:09Z
2022-03-18T02:24:36Z,42.805,6.029,13.3015,4.60085,2470.24,2022-3-18T04:26:12Z
2022-03-18T02:27:39Z,42.805,6.029,13.3014,4.60071,2470.217,2022-3-18T04:29:16Z
2022-03-18T02:30:43Z,42.805,6.029,13.3014,4.60064,2470.227,2022-3-18T04:32:19Z
2022-03-18T02:33:46Z,42.805,6.029,13.3015,4.60074,2470.217,2022-3-18T04:35:22Z
2022-03-18T02:36:49Z,42.805,6.029,13.3019,4.60074,2470.24,2022-3-18T04:38:25Z
2022-03-18T02:39:52Z,42.805,6.029,13.3021,4.60072,2470.203,2022-3-18T04:41:28Z
2022-03-18T02:42:55Z,42.805,6.029,13.3014,4.60077,2470.227,2022-3-18T04:44:31Z
2022-03-18T02:45:58Z,42.805,6.029,13.3021,4.60079,2470.24,2022-3-18T04:47:34Z
2022-03-18T02:49:01Z,42.805,6.029,13.3020,4.60061,2470.25,2022-3-18T04:50:37Z
2022-03-18T02:52:04Z,42.805,6.029,13.3021,4.60059,2470.24,2022-3-18T04:53:40Z
2022-03-18T02:55:08Z,42.805,6.029,13.3015,4.60057,2470.24,2022-3-18T04:56:44Z
2022-03-18T02:58:11Z,42.805,6.029,13.3016,4.60062,2470.264,2022-3-18T04:59:47Z
2022-03-18T03:01:14Z,42.805,6.029,13.3013,4.60058,2470.203,2022-3-18T05:02:50Z
2022-03-18T03:04:17Z,42.805,6.029,13.3013,4.60057,2470.287,2022-3-18T05:05:53Z
2022-03-18T03:07:20Z,42.805,6.029,13.3015,4.60049,2470.287,2022-3-18T05:08:56Z
2022-03-18T03:10:23Z,42.805,6.029,13.3012,4.60054,2470.227,2022-3-18T05:11:59Z
2022-03-18T03:13:26Z,42.805,6.029,13.3007,4.60049,2470.25,2022-3-18T05:15:02Z
2022-03-18T03:16:29Z,42.805,6.029,13.3014,4.60057,2470.264,2022-3-18T05:18:05Z
2022-03-18T03:19:32Z,42.805,6.029,13.3011,4.60052,2470.264,2022-3-18T05:21:09Z
2022-03-18T03:22:36Z,42.805,6.029,13.3008,4.60056,2470.25,2022-3-18T05:24:12Z
2022-03-18T03:25:39Z,42.805,6.029,13.3014,4.60056,2470.25,2022-3-18T05:27:15Z
2022-03-18T03:28:42Z,42.805,6.029,13.3016,4.60058,2470.264,2022-3-18T05:30:18Z
2022-03-18T03:31:45Z,42.805,6.029,13.3012,4.60052,2470.32,2022-3-18T05:33:21Z
2022-03-18T03:34:48Z,42.805,6.029,13.3019,4.60064,2470.287,2022-3-18T05:36:24Z
2022-03-18T03:37:51Z,42.805,6.029,13.3009,4.60049,2470.287,2022-3-18T05:39:27Z
2022-03-18T03:40:54Z,42.805,6.029,13.3010,4.60059,2470.287,2022-3-18T05:42:30Z
2022-03-18T03:43:57Z,42.805,6.029,13.3009,4.60047,2470.297,2022-3-18T05:45:34Z
2022-03-18T03:47:01Z,42.805,6.029,13.3013,4.60049,2470.273,2022-3-18T05:48:37Z
2022-03-18T03:50:04Z,42.805,6.029,13.3014,4.60055,2470.297,2022-3-18T05:51:40Z
2022-03-18T03:53:07Z,42.805,6.029,13.3009,4.60046,2470.273,2022-3-18T05:54:43Z
2022-03-18T03:56:10Z,42.805,6.029,13.3009,4.60049,2470.334,2022-3-18T05:57:46Z
2022-03-18T03:59:13Z,42.805,6.029,13.3009,4.60054,2470.334,2022-3-18T06:00:49Z
2022-03-18T04:02:16Z,42.805,6.029,13.3007,4.60046,2470.32,2022-3-18T06:03:52Z
2022-03-18T04:05:19Z,42.805,6.029,13.3013,4.60063,2470.297,2022-3-18T06:06:55Z
2022-03-18T04:08:22Z,42.805,6.029,13.3008,4.60049,2470.334,2022-3-18T06:09:59Z
2022-03-18T04:11:26Z,42.805,6.029,13.3007,4.60046,2470.343,2022-3-18T06:13:02Z
2022-03-18T04:14:29Z,42.805,6.029,13.3009,4.60055,2470.306,2022-3-18T06:16:05Z
2022-03-18T04:17:32Z,42.805,6.029,13.3009,4.60052,2470.38,2022-3-18T06:19:08Z
2022-03-18T04:20:35Z,42.805,6.029,13.3012,4.60054,2470.366,2022-3-18T06:22:11Z
2022-03-18T04:23:38Z,42.805,6.029,13.3014,4.60052,2470.33,2022-3-18T06:25:14Z
2022-03-18T04:26:41Z,42.805,6.029,13.3012,4.60051,2470.357,2022-3-18T06:28:17Z
2022-03-18T04:29:44Z,42.805,6.029,13.3011,4.60055,2470.32,2022-3-18T06:31:20Z
2022-03-18T04:32:47Z,42.805,6.029,13.3014,4.60050,2470.39,2022-3-18T06:34:23Z
2022-03-18T04:35:50Z,42.805,6.029,13.3011,4.60049,2470.38,2022-3-18T06:37:27Z
2022-03-18T04:38:54Z,42.805,6.029,13.3012,4.60049,2470.366,2022-3-18T06:40:30Z
2022-03-18T04:41:57Z,42.805,6.029,13.3011,4.60053,2470.366,2022-3-18T06:43:33Z
2022-03-18T04:45:00Z,42.805,6.029,13.3009,4.60047,2470.343,2022-3-18T06:46:36Z
2022-03-18T04:48:03Z,42.805,6.029,13.3008,4.60044,2470.39,2022-3-18T06:49:39Z
2022-03-18T04:51:06Z,42.805,6.029,13.3009,4.60049,2470.38,2022-3-18T06:52:42Z
2022-03-18T04:54:09Z,42.805,6.029,13.3012,4.60059,2470.39,2022-3-18T06:55:45Z
2022-03-18T04:57:12Z,42.805,6.029,13.3012,4.60064,2470.366,2022-3-18T06:58:48Z
2022-03-18T05:00:15Z,42.805,6.029,13.3011,4.60052,2470.39,2022-3-18T07:01:52Z
2022-03-18T05:03:19Z,42.805,6.029,13.3011,4.60055,2470.39,2022-3-18T07:04:55Z
2022-03-18T05:06:22Z,42.805,6.029,13.3014,4.60061,2470.404,2022-3-18T07:07:58Z
2022-03-18T05:09:25Z,42.805,6.029,13.3017,4.60058,2470.45,2022-3-18T07:11:01Z
2022-03-18T05:12:28Z,42.805,6.029,13.3015,4.60052,2470.404,2022-3-18T07:14:04Z
2022-03-18T05:15:31Z,42.805,6.029,13.3011,4.60059,2470.474,2022-3-18T07:17:07Z
2022-03-18T05:18:34Z,42.805,6.029,13.3014,4.60066,2470.427,2022-3-18T07:20:10Z
2022-03-18T05:21:37Z,42.805,6.029,13.3006,4.60045,2470.474,2022-3-18T07:23:13Z
2022-03-18T05:24:40Z,42.805,6.029,13.3007,4.60048,2470.437,2022-3-18T07:26:17Z
2022-03-18T05:27:44Z,42.805,6.029,13.3015,4.60074,2470.437,2022-3-18T07:29:20Z
2022-03-18T05:30:47Z,42.805,6.029,13.3011,4.60065,2470.437,2022-3-18T07:32:23Z
2022-03-18T05:33:50Z,42.805,6.029,13.3010,4.60054,2470.45,2022-3-18T07:35:26Z
2022-03-18T05:36:53Z,42.805,6.029,13.3008,4.60046,2470.427,2022-3-18T07:38:29Z
2022-03-18T05:39:56Z,42.805,6.029,13.3010,4.60049,2470.437,2022-3-18T07:41:32Z
2022-03-18T05:42:59Z,42.805,6.029,13.3009,4.60064,2470.46,2022-3-18T07:44:35Z
2022-03-18T05:46:02Z,42.805,6.029,13.3015,4.60054,2470.437,2022-3-18T07:47:38Z
2022-03-18T05:49:05Z,42.805,6.029,13.3014,4.60052,2470.474,2022-3-18T07:50:42Z
2022-03-18T05:52:09Z,42.805,6.029,13.3009,4.60046,2470.437,2022-3-18T07:53:45Z
2022-03-18T05:55:12Z,42.805,6.029,13.3009,4.60062,2470.46,2022-3-18T07:56:48Z
2022-03-18T05:58:15Z,42.805,6.029,13.3014,4.60055,2470.483,2022-3-18T07:59:51Z
2022-03-18T06:01:18Z,42.805,6.029,13.3011,4.60049,2470.483,2022-3-18T08:02:54Z
2022-03-18T06:04:21Z,42.805,6.029,13.3010,4.60046,2470.46,2022-3-18T08:05:57Z
2022-03-18T06:07:24Z,42.805,6.029,13.3011,4.60059,2470.483,2022-3-18T08:09:00Z
2022-03-18T06:10:27Z,42.805,6.029,13.3014,4.60054,2470.46,2022-3-18T08:12:03Z
2022-03-18T06:13:30Z,42.805,6.029,13.3011,4.60047,2470.497,2022-3-18T08:15:07Z
2022-03-18T06:16:33Z,42.805,6.029,13.3006,4.60046,2470.47,2022-3-18T08:18:10Z
2022-03-18T06:19:37Z,42.805,6.029,13.3011,4.60057,2470.483,2022-3-18T08:21:13Z
2022-03-18T06:22:40Z,42.805,6.029,13.3012,4.60051,2470.483,2022-3-18T08:24:16Z
2022-03-18T06:25:43Z,42.805,6.029,13.3014,4.60052,2470.483,2022-3-18T08:27:19Z
2022-03-18T06:28:46Z,42.805,6.029,13.3014,4.60059,2470.497,2022-3-18T08:30:22Z
2022-03-18T06:31:49Z,42.805,6.029,13.3010,4.60045,2470.474,2022-3-18T08:33:25Z
2022-03-18T06:34:52Z,42.805,6.029,13.3011,4.60052,2470.483,2022-3-18T08:36:28Z
2022-03-18T06:37:55Z,42.805,6.029,13.3014,4.60049,2470.46,2022-3-18T08:39:31Z
2022-03-18T06:40:58Z,42.805,6.029,13.3011,4.60052,2470.497,2022-3-18T08:42:35Z
2022-03-18T06:44:02Z,42.805,6.029,13.3004,4.60049,2470.483,2022-3-18T08:45:38Z
2022-03-18T06:47:05Z,42.805,6.029,13.3012,4.60063,2470.507,2022-3-18T08:48:41Z
2022-03-18T06:50:08Z,42.805,6.029,13.3012,4.60047,2470.483,2022-3-18T08:51:44Z
2022-03-18T06:53:11Z,42.805,6.029,13.3009,4.60048,2470.52,2022-3-18T08:54:47Z
2022-03-18T06:56:14Z,42.805,6.029,13.3011,4.60047,2470.52,2022-3-18T08:57:50Z
2022-03-18T06:59:17Z,42.805,6.029,13.3004,4.60042,2470.52,2022-3-18T09:00:53Z
2022-03-18T07:02:20Z,42.805,6.029,13.3014,4.60062,2470.497,2022-3-18T09:03:56Z
2022-03-18T07:05:23Z,42.805,6.029,13.3013,4.60052,2470.483,2022-3-18T09:07:00Z
2022-03-18T07:08:27Z,42.805,6.029,13.3019,4.60059,2470.53,2022-3-18T09:10:03Z
2022-03-18T07:11:30Z,42.805,6.029,13.3007,4.60047,2470.507,2022-3-18T09:13:06Z
2022-03-18T07:14:33Z,42.805,6.029,13.3014,4.60054,2470.544,2022-3-18T09:16:09Z
2022-03-18T07:17:36Z,42.805,6.029,13.3008,4.60045,2470.53,2022-3-18T09:19:12Z
2022-03-18T07:20:39Z,42.805,6.029,13.3007,4.60049,2470.52,2022-3-18T09:22:15Z
2022-03-18T07:23:42Z,42.805,6.029,13.3011,4.60046,2470.507,2022-3-18T09:25:18Z
2022-03-18T07:26:45Z,42.805,6.029,13.3010,4.60046,2470.507,2022-3-18T09:28:21Z
2022-03-18T07:29:48Z,42.805,6.029,13.3008,4.60047,2470.507,2022-3-18T09:31:25Z
2022-03-18T07:32:52Z,42.805,6.029,13.3011,4.60057,2470.544,2022-3-18T09:34:28Z
2022-03-18T07:35:55Z,42.805,6.029,13.3004,4.60044,2470.483,2022-3-18T09:37:31Z
2022-03-18T07:38:58Z,42.805,6.029,13.3002,4.60043,2470.483,2022-3-18T09:40:34Z
2022-03-18T07:42:01Z,42.805,6.029,13.3006,4.60046,2470.507,2022-3-18T09:43:37Z
2022-03-18T07:45:04Z,42.805,6.029,13.3009,4.60048,2470.52,2022-3-18T09:46:40Z
2022-03-18T07:48:07Z,42.805,6.029,13.3007,4.60049,2470.544,2022-3-18T09:49:43Z
2022-03-18T07:51:10Z,42.805,6.029,13.3004,4.60044,2470.507,2022-3-18T09:52:46Z
2022-03-18T07:54:13Z,42.805,6.029,13.3009,4.60044,2470.507,2022-3-18T09:55:50Z
2022-03-18T07:57:17Z,42.805,6.029,13.3007,4.60046,2470.52,2022-3-18T09:58:53Z
2022-03-18T08:00:20Z,42.805,6.029,13.3007,4.60045,2470.507,2022-3-18T10:01:56Z
2022-03-18T08:03:23Z,42.805,6.029,13.3009,4.60048,2470.53,2022-3-18T10:04:59Z
2022-03-18T08:06:26Z,42.805,6.029,13.3013,4.60045,2470.53,2022-3-18T10:08:02Z
2022-03-18T08:09:29Z,42.805,6.029,13.3013,4.60050,2470.53,2022-3-18T10:11:05Z
2022-03-18T08:12:32Z,42.805,6.029,13.3008,4.60044,2470.53,2022-3-18T10:14:08Z
2022-03-18T08:15:35Z,42.805,6.029,13.3006,4.60042,2470.507,2022-3-18T10:17:11Z
2022-03-18T08:18:38Z,42.805,6.029,13.3004,4.60048,2470.52,2022-3-18T10:20:14Z
2022-03-18T08:21:42Z,42.805,6.029,13.3009,4.60052,2470.53,2022-3-18T10:23:18Z
2022-03-18T08:24:45Z,42.805,6.029,13.3006,4.60045,2470.544,2022-3-18T10:26:21Z
2022-03-18T08:27:48Z,42.805,6.029,13.3003,4.60045,2470.507,2022-3-18T10:29:24Z
2022-03-18T08:30:51Z,42.805,6.029,13.3006,4.60054,2470.553,2022-3-18T10:32:27Z
2022-03-18T08:33:54Z,42.805,6.029,13.3013,4.60055,2470.53,2022-3-18T10:35:30Z
2022-03-18T08:36:57Z,42.805,6.029,13.3006,4.60054,2470.53,2022-3-18T10:38:33Z
2022-03-18T08:40:00Z,42.805,6.029,13.3010,4.60050,2470.507,2022-3-18T10:41:36Z
2022-03-18T08:43:03Z,42.805,6.029,13.3008,4.60049,2470.544,2022-3-18T10:44:40Z
2022-03-18T08:46:07Z,42.805,6.029,13.3010,4.60057,2470.507,2022-3-18T10:47:43Z
2022-03-18T08:49:10Z,42.805,6.029,13.3014,4.60052,2470.507,2022-3-18T10:50:46Z
2022-03-18T08:52:13Z,42.805,6.029,13.3013,4.60054,2470.53,2022-3-18T10:53:49Z
2022-03-18T08:55:16Z,42.805,6.029,13.3011,4.60050,2470.52,2022-3-18T10:56:52Z
2022-03-18T08:58:19Z,42.805,6.029,13.3012,4.60043,2470.52,2022-3-18T10:59:55Z
2022-03-18T09:01:22Z,42.805,6.029,13.3013,4.60057,2470.53,2022-3-18T11:02:58Z
2022-03-18T09:04:25Z,42.805,6.029,13.3013,4.60053,2470.497,2022-3-18T11:06:01Z
2022-03-18T09:07:28Z,42.805,6.029,13.3007,4.60047,2470.52,2022-3-18T11:09:05Z
2022-03-18T09:10:32Z,42.805,6.029,13.3012,4.60049,2470.507,2022-3-18T11:12:08Z
2022-03-18T09:13:35Z,42.805,6.029,13.3009,4.60049,2470.52,2022-3-18T11:15:11Z
2022-03-18T09:16:38Z,42.805,6.029,13.3018,4.60067,2470.507,2022-3-18T11:18:14Z
2022-03-18T09:19:41Z,42.805,6.029,13.3015,4.60072,2470.483,2022-3-18T11:21:17Z
2022-03-18T09:22:44Z,42.805,6.029,13.3009,4.60051,2470.497,2022-3-18T11:24:20Z
2022-03-18T09:25:47Z,42.805,6.029,13.3011,4.60057,2470.497,2022-3-18T11:27:23Z
2022-03-18T09:28:50Z,42.805,6.029,13.3009,4.60052,2470.507,2022-3-18T11:30:26Z
2022-03-18T09:31:53Z,42.805,6.029,13.3030,4.60074,2470.507,2022-3-18T11:33:30Z
2022-03-18T09:34:57Z,42.805,6.029,13.3017,4.60075,2470.507,2022-3-18T11:36:33Z
2022-03-18T09:38:00Z,42.805,6.029,13.3019,4.60059,2470.497,2022-3-18T11:39:36Z
2022-03-18T09:41:03Z,42.805,6.029,13.3024,4.60072,2470.46,2022-3-18T11:42:39Z
2022-03-18T09:44:06Z,42.805,6.029,13.3022,4.60072,2470.497,2022-3-18T11:45:42Z
2022-03-18T09:47:09Z,42.805,6.029,13.3015,4.60067,2470.46,2022-3-18T11:48:45Z
2022-03-18T09:50:12Z,42.805,6.029,13.3019,4.60063,2470.497,2022-3-18T11:51:48Z
2022-03-18T09:53:15Z,42.805,6.029,13.3016,4.60070,2470.46,2022-3-18T11:54:51Z
2022-03-18T09:56:18Z,42.805,6.029,13.3015,4.60057,2470.46,2022-3-18T11:57:55Z
2022-03-18T09:59:22Z,42.805,6.029,13.3012,4.60058,2470.437,2022-3-18T12:00:58Z
2022-03-18T10:02:25Z,42.805,6.029,13.3009,4.60049,2470.413,2022-3-18T12:04:01Z
2022-03-18T10:05:28Z,42.805,6.029,13.3005,4.60074,2470.437,2022-3-18T12:07:04Z
2022-03-18T10:08:31Z,42.805,6.029,13.3010,4.60047,2470.45,2022-3-18T12:10:07Z
2022-03-18T10:11:34Z,42.805,6.029,13.3013,4.60062,2470.474,2022-3-18T12:13:10Z
2022-03-18T10:14:37Z,42.805,6.029,13.3020,4.60072,2470.46,2022-3-18T12:16:13Z
2022-03-18T10:17:40Z,42.805,6.029,13.3013,4.60067,2470.413,2022-3-18T12:19:16Z
2022-03-18T10:20:43Z,42.805,6.029,13.3011,4.60051,2470.46,2022-3-18T12:22:20Z
2022-03-18T10:23:47Z,42.805,6.029,13.3008,4.60055,2470.437,2022-3-18T12:25:23Z
2022-03-18T10:26:50Z,42.805,6.029,13.3029,4.60061,2470.437,2022-3-18T12:28:26Z
2022-03-18T10:29:53Z,42.805,6.029,13.3012,4.60059,2470.45,2022-3-18T12:31:29Z
2022-03-18T10:32:56Z,42.805,6.029,13.3007,4.60057,2470.413,2022-3-18T12:34:32Z
2022-03-18T10:35:59Z,42.805,6.029,13.3009,4.60061,2470.437,2022-3-18T12:37:35Z
2022-03-18T10:39:02Z,42.805,6.029,13.3015,4.60070,2470.427,2022-3-18T12:40:38Z
2022-03-18T10:42:05Z,42.805,6.029,13.3009,4.60058,2470.413,2022-3-18T12:43:41Z
2022-03-18T10:45:08Z,42.805,6.029,13.3011,4.60057,2470.437,2022-3-18T12:46:45Z
2022-03-18T10:48:12Z,42.805,6.029,13.3012,4.60062,2470.413,2022-3-18T12:49:48Z
2022-03-18T10:51:15Z,42.805,6.029,13.3021,4.60084,2470.413,2022-3-18T12:52:51Z
2022-03-18T10:54:18Z,42.805,6.029,13.3023,4.60078,2470.39,2022-3-18T12:55:54Z
2022-03-18T10:57:21Z,42.805,6.029,13.3026,4.60087,2470.413,2022-3-18T12:58:57Z
2022-03-18T11:00:24Z,42.805,6.029,13.3015,4.60071,2470.413,2022-3-18T13:02:00Z
2022-03-18T11:03:27Z,42.805,6.029,13.3008,4.60060,2470.39,2022-3-18T13:05:03Z
2022-03-18T11:06:30Z,42.805,6.029,13.3021,4.60063,2470.366,2022-3-18T13:08:06Z
2022-03-18T11:09:33Z,42.805,6.029,13.3005,4.60049,2470.39,2022-3-18T13:11:10Z
2022-03-18T11:12:37Z,42.805,6.029,13.3013,4.60059,2470.404,2022-3-18T13:14:13Z
2022-03-18T11:15:40Z,42.805,6.029,13.3007,4.60080,2470.366,2022-3-18T13:17:16Z
2022-03-18T11:18:43Z,42.805,6.029,13.3024,4.60089,2470.404,2022-3-18T13:20:19Z
2022-03-18T11:21:46Z,42.805,6.029,13.3025,4.60093,2470.39,2022-3-18T13:23:22Z
2022-03-18T11:24:49Z,42.805,6.029,13.3010,4.60067,2470.366,2022-3-18T13:26:25Z
2022-03-18T11:27:52Z,42.805,6.029,13.3015,4.60080,2470.404,2022-3-18T13:29:28Z
2022-03-18T11:30:55Z,42.805,6.029,13.3017,4.60072,2470.413,2022-3-18T13:32:31Z
2022-03-18T11:33:58Z,42.805,6.029,13.3015,4.60074,2470.39,2022-3-18T13:35:35Z
2022-03-18T11:37:02Z,42.805,6.029,13.3019,4.60074,2470.404,2022-3-18T13:38:38Z
2022-03-18T11:40:05Z,42.805,6.029,13.3024,4.60067,2470.366,2022-3-18T13:41:41Z
2022-03-18T11:43:08Z,42.805,6.029,13.3015,4.60062,2470.404,2022-3-18T13:44:44Z
2022-03-18T11:46:11Z,42.805,6.029,13.3009,4.60062,2470.366,2022-3-18T13:47:47Z
2022-03-18T11:49:14Z,42.805,6.029,13.3015,4.60064,2470.413,2022-3-18T13:50:50Z
2022-03-18T11:52:17Z,42.805,6.029,13.3022,4.60087,2470.413,2022-3-18T13:53:53Z
2022-03-18T11:55:20Z,42.805,6.029,13.3009,4.60081,2470.39,2022-3-18T13:56:57Z
2022-03-18T11:58:23Z,42.805,6.029,13.3004,4.60059,2470.39,2022-3-18T14:00:00Z
2022-03-18T12:01:27Z,42.805,6.029,13.3012,4.60055,2470.404,2022-3-18T14:03:03Z
2022-03-18T12:04:30Z,42.805,6.029,13.3013,4.60069,2470.39,2022-3-18T14:06:06Z
2022-03-18T12:07:33Z,42.805,6.029,13.3019,4.60077,2470.366,2022-3-18T14:09:09Z
2022-03-18T12:10:36Z,42.805,6.029,13.3009,4.60064,2470.343,2022-3-18T14:12:12Z
2022-03-18T12:13:39Z,42.805,6.029,13.3012,4.60073,2470.38,2022-3-18T14:15:15Z
2022-03-18T12:16:42Z,42.805,6.029,13.3014,4.60069,2470.39,2022-3-18T14:18:18Z
2022-03-18T12:19:45Z,42.805,6.029,13.3013,4.60074,2470.404,2022-3-18T14:21:21Z
2022-03-18T12:22:48Z,42.805,6.029,13.3020,4.60058,2470.38,2022-3-18T14:24:25Z
2022-03-18T12:25:52Z,42.805,6.029,13.3011,4.60061,2470.404,2022-3-18T14:27:28Z
2022-03-18T12:28:55Z,42.805,6.029,13.3013,4.60062,2470.357,2022-3-18T14:30:31Z
2022-03-18T12:31:58Z,42.805,6.029,13.3011,4.60069,2470.366,2022-3-18T14:33:34Z
2022-03-18T12:35:01Z,42.805,6.029,13.3023,4.60081,2470.343,2022-3-18T14:36:37Z
2022-03-18T12:38:04Z,42.805,6.029,13.3014,4.60091,2470.366,2022-3-18T14:39:40Z
2022-03-18T12:41:07Z,42.805,6.029,13.3012,4.60070,2470.38,2022-3-18T14:42:43Z
2022-03-18T12:44:10Z,42.805,6.029,13.3008,4.60057,2470.366,2022-3-18T14:45:46Z
2022-03-18T12:47:13Z,42.805,6.029,13.3014,4.60056,2470.343,2022-3-18T14:48:50Z
2022-03-18T12:50:17Z,42.805,6.029,13.3018,4.60069,2470.404,2022-3-18T14:51:53Z
2022-03-18T12:53:20Z,42.805,6.029,13.3011,4.60075,2470.343,2022-3-18T14:54:56Z
2022-03-18T12:56:23Z,42.805,6.029,13.3024,4.60075,2470.343,2022-3-18T14:57:59Z
2022-03-18T12:59:26Z,42.805,6.029,13.3026,4.60088,2470.38,2022-3-18T15:01:02Z
2022-03-18T13:02:29Z,42.805,6.029,13.3020,4.60093,2470.343,2022-3-18T15:04:05Z
2022-03-18T13:05:32Z,42.805,6.029,13.3015,4.60079,2470.343,2022-3-18T15:07:08Z
2022-03-18T13:08:35Z,42.805,6.029,13.3032,4.60088,2470.334,2022-3-18T15:10:11Z
2022-03-18T13:11:38Z,42.805,6.029,13.3022,4.60083,2470.343,2022-3-18T15:13:15Z
2022-03-18T13:14:42Z,42.805,6.029,13.3024,4.60079,2470.343,2022-3-18T15:16:18Z
2022-03-18T13:17:45Z,42.805,6.029,13.3029,4.60074,2470.32,2022-3-18T15:19:21Z
2022-03-18T13:20:48Z,42.805,6.029,13.3023,4.60080,2470.357,2022-3-18T15:22:24Z
2022-03-18T13:23:51Z,42.805,6.029,13.3018,4.60090,2470.343,2022-3-18T15:25:27Z
2022-03-18T13:26:54Z,42.805,6.029,13.3020,4.60069,2470.334,2022-3-18T15:28:30Z
2022-03-18T13:29:57Z,42.805,6.029,13.3015,4.60072,2470.343,2022-3-18T15:31:33Z
2022-03-18T13:33:00Z,42.805,6.029,13.3015,4.60077,2470.343,2022-3-18T15:34:37Z
2022-03-18T13:36:03Z,42.805,6.029,13.3010,4.60084,2470.366,2022-3-18T15:37:40Z
2022-03-18T13:39:07Z,42.805,6.029,13.3016,4.60084,2470.32,2022-3-18T15:40:43Z
2022-03-18T13:42:10Z,42.805,6.029,13.3016,4.60091,2470.32,2022-3-18T15:43:46Z
2022-03-18T13:45:13Z,42.805,6.029,13.3017,4.60088,2470.32,2022-3-18T15:46:49Z
2022-03-18T13:48:16Z,42.805,6.029,13.3013,4.60088,2470.32,2022-3-18T15:49:52Z
2022-03-18T13:51:19Z,42.805,6.029,13.3019,4.60087,2470.32,2022-3-18T15:52:55Z
2022-03-18T13:54:22Z,42.805,6.029,13.3015,4.60082,2470.32,2022-3-18T15:55:58Z
2022-03-18T13:57:25Z,42.805,6.029,13.3015,4.60085,2470.343,2022-3-18T15:59:02Z
2022-03-18T14:00:29Z,42.805,6.029,13.3014,4.60077,2470.343,2022-3-18T16:02:05Z
2022-03-18T14:03:32Z,42.805,6.029,13.3010,4.60075,2470.357,2022-3-18T16:05:08Z
2022-03-18T14:06:35Z,42.805,6.029,13.3013,4.60097,2470.334,2022-3-18T16:08:11Z
2022-03-18T14:09:38Z,42.805,6.029,13.3019,4.60083,2470.366,2022-3-18T16:11:14Z
2022-03-18T14:12:41Z,42.805,6.029,13.3011,4.60059,2470.334,2022-3-18T16:14:17Z
2022-03-18T14:15:44Z,42.805,6.029,13.3011,4.60069,2470.357,2022-3-18T16:17:20Z
2022-03-18T14:18:47Z,42.805,6.029,13.3020,4.60094,2470.357,2022-3-18T16:20:23Z
2022-03-18T14:21:50Z,42.805,6.029,13.3022,4.60081,2470.357,2022-3-18T16:23:27Z
2022-03-18T14:24:54Z,42.805,6.029,13.3011,4.60064,2470.343,2022-3-18T16:26:30Z
2022-03-18T14:27:57Z,42.805,6.029,13.3009,4.60106,2470.357,2022-3-18T16:29:33Z
2022-03-18T14:31:00Z,42.805,6.029,13.3011,4.60062,2470.297,2022-3-18T16:32:36Z
2022-03-18T14:34:03Z,42.805,6.029,13.3009,4.60063,2470.39,2022-3-18T16:35:39Z
2022-03-18T14:37:06Z,42.805,6.029,13.3012,4.60064,2470.38,2022-3-18T16:38:42Z
2022-03-18T14:40:09Z,42.805,6.029,13.3015,4.60067,2470.31,2022-3-18T16:41:45Z
2022-03-18T14:43:12Z,42.805,6.029,13.3029,4.60075,2470.32,2022-3-18T16:44:48Z
2022-03-18T14:46:15Z,42.805,6.029,13.3015,4.60069,2470.32,2022-3-18T16:47:52Z
2022-03-18T14:49:19Z,42.805,6.029,13.3014,4.60069,2470.334,2022-3-18T16:50:55Z
2022-03-18T14:52:22Z,42.805,6.029,13.3016,4.60057,2470.366,2022-3-18T16:53:58Z
2022-03-18T14:55:25Z,42.805,6.029,13.3021,4.60086,2470.32,2022-3-18T16:57:01Z
2022-03-18T14:58:28Z,42.805,6.029,13.3009,4.60052,2470.357,2022-3-18T17:00:04Z
2022-03-18T15:01:31Z,42.805,6.029,13.3013,4.60070,2470.334,2022-3-18T17:03:07Z
2022-03-18T15:04:34Z,42.805,6.029,13.3011,4.60064,2470.297,2022-3-18T17:06:10Z
2022-03-18T15:07:37Z,42.805,6.029,13.3010,4.60065,2470.357,2022-3-18T17:09:13Z
2022-03-18T15:10:40Z,42.805,6.029,13.3009,4.60052,2470.343,2022-3-18T17:12:17Z
2022-03-18T15:13:44Z,42.805,6.029,13.3006,4.60068,2470.334,2022-3-18T17:15:20Z